| time (UTC) | temp C | wind direction | speed KPH | gust KPH | rain 1hr cm | rain 24hr cm | rain mn cm | humidity % | barometer mb |
| 20260902102516 | 23 | 198 | 3.2 | 4.8 | 0.00 | 0.00 | 0.00 | 83 | 1017.3 |
| 20260902102017 | 23 | 202 | 3.2 | 4.8 | 0.00 | 0.00 | 0.00 | 83 | 1017.3 |
| 20260902101520 | 23 | 201 | 1.6 | 3.2 | 0.00 | 0.00 | 0.00 | 83 | 1017.3 |
| 20260902101007 | 23 | 217 | 1.6 | 4.8 | 0.00 | 0.00 | 0.00 | 83 | 1017.2 |
| 20260902100507 | 23 | 210 | 3.2 | 4.8 | 0.00 | 0.00 | 0.00 | 82 | 1017.2 |
| 20260902100016 | 23 | 188 | 3.2 | 4.8 | 0.00 | 0.00 | 0.00 | 82 | 1017.2 |
| 20260902095510 | 23 | 209 | 1.6 | 4.8 | 0.00 | 0.00 | 0.00 | 82 | 1017.1 |
| 20260902095012 | 23 | 216 | 3.2 | 4.8 | 0.00 | 0.00 | 0.00 | 82 | 1017.1 |
| 20260902094524 | 23 | 213 | 3.2 | 6.4 | 0.00 | 0.00 | 0.00 | 82 | 1017.1 |
| 20260902094012 | 23 | 198 | 3.2 | 8.0 | 0.00 | 0.00 | 0.00 | 82 | 1017.1 |
| 20260902093513 | 23 | 217 | 3.2 | 8.0 | 0.00 | 0.00 | 0.00 | 82 | 1017.2 |
| 20260902093036 | 23 | 200 | 1.6 | 4.8 | 0.00 | 0.00 | 0.00 | 82 | 1017.2 |
| 20260902092512 | 23 | 202 | 3.2 | 4.8 | 0.00 | 0.00 | 0.00 | 82 | 1017.2 |
| 20260902092013 | 23 | 196 | 1.6 | 4.8 | 0.00 | 0.00 | 0.00 | 82 | 1017.2 |
| 20260902091537 | 23 | 214 | 3.2 | 4.8 | 0.00 | 0.00 | 0.00 | 82 | 1017.1 |
| 20260902091016 | 23 | 205 | 1.6 | 4.8 | 0.00 | 0.00 | 0.00 | 82 | 1017.1 |
| 20260902090504 | 23 | 202 | 3.2 | 4.8 | 0.00 | 0.00 | 0.00 | 83 | 1017.1 |
| 20260902090014 | 23 | 199 | 3.2 | 4.8 | 0.00 | 0.00 | 0.00 | 83 | 1017.1 |
| 20260902085511 | 23 | 196 | 1.6 | 4.8 | 0.00 | 0.00 | 0.00 | 83 | 1017.1 |
| 20260902085007 | 23 | 201 | 3.2 | 4.8 | 0.00 | 0.00 | 0.00 | 83 | 1017.1 |
| 20260902084530 | 23 | 219 | 3.2 | 4.8 | 0.00 | 0.00 | 0.00 | 83 | 1017.0 |
| 20260902084009 | 23 | 220 | 1.6 | 4.8 | 0.00 | 0.00 | 0.00 | 83 | 1017.0 |
| 20260902083517 | 23 | 209 | 1.6 | 3.2 | 0.00 | 0.00 | 0.00 | 83 | 1017.1 |
| 20260902083038 | 23 | 206 | 1.6 | 3.2 | 0.00 | 0.00 | 0.00 | 83 | 1017.0 |
| 20260902082515 | 24 | 213 | 1.6 | 3.2 | 0.00 | 0.00 | 0.00 | 83 | 1016.9 |
| 20260902082015 | 24 | 221 | 1.6 | 4.8 | 0.00 | 0.00 | 0.00 | 83 | 1016.9 |
| 20260902081531 | 24 | 213 | 1.6 | 4.8 | 0.00 | 0.00 | 0.00 | 83 | 1016.9 |
| 20260902081014 | 24 | 212 | 1.6 | 4.8 | 0.00 | 0.00 | 0.00 | 83 | 1016.9 |
| 20260902080515 | 24 | 212 | 1.6 | 3.2 | 0.00 | 0.00 | 0.00 | 83 | 1016.9 |
| 20260902080032 | 24 | 206 | 1.6 | 3.2 | 0.00 | 0.00 | 0.00 | 83 | 1016.8 |
| 20260902075505 | 24 | 211 | 1.6 | 3.2 | 0.00 | 0.00 | 0.00 | 83 | 1016.8 |
| 20260902075007 | 24 | 210 | 1.6 | 3.2 | 0.00 | 0.00 | 0.00 | 83 | 1016.8 |
| 20260902074516 | 24 | 215 | 1.6 | 3.2 | 0.00 | 0.00 | 0.00 | 83 | 1016.8 |
| 20260902074011 | 24 | 215 | 1.6 | 3.2 | 0.00 | 0.00 | 0.00 | 83 | 1016.7 |
| 20260902073511 | 24 | 215 | 1.6 | 3.2 | 0.00 | 0.00 | 0.00 | 83 | 1016.8 |
| 20260902073026 | 24 | 208 | 1.6 | 4.8 | 0.00 | 0.00 | 0.00 | 83 | 1016.8 |
| 20260902072512 | 24 | 227 | 3.2 | 4.8 | 0.00 | 0.00 | 0.00 | 83 | 1016.9 |
| 20260902072014 | 24 | 217 | 1.6 | 4.8 | 0.00 | 0.00 | 0.00 | 83 | 1016.9 |
| 20260902071535 | 24 | 208 | 3.2 | 6.4 | 0.00 | 0.00 | 0.00 | 1016.9 | |
| 20260902071020 | 25 | 229 | 3.2 | 6.4 | 0.00 | 0.00 | 0.00 | 83 | 1016.9 |
| 20260902070513 | 25 | 198 | 1.6 | 4.8 | 0.00 | 0.00 | 0.00 | 83 | 1016.8 |
| 20260902070034 | 25 | 221 | 3.2 | 4.8 | 0.00 | 0.00 | 0.00 | 83 | 1016.8 |
| 20260902065515 | 25 | 213 | 1.6 | 6.4 | 0.00 | 0.00 | 0.00 | 83 | 1016.8 |
| 20260902065019 | 25 | 216 | 1.6 | 6.4 | 0.00 | 0.00 | 0.00 | 83 | 1016.8 |
| 20260902064516 | 25 | 221 | 1.6 | 4.8 | 0.00 | 0.00 | 0.00 | 83 | 1016.9 |
| 20260902064008 | 25 | 216 | 1.6 | 8.0 | 0.00 | 0.00 | 0.00 | 82 | 1017.0 |
| 20260902063509 | 25 | 212 | 1.6 | 8.0 | 0.00 | 0.00 | 0.00 | 82 | 1016.9 |
| 20260902063027 | 25 | 216 | 3.2 | 4.8 | 0.00 | 0.00 | 0.00 | 82 | 1017.0 |
| 20260902062512 | 25 | 205 | 1.6 | 3.2 | 0.00 | 0.00 | 0.00 | 82 | 1017.1 |
| 20260902062017 | 25 | 205 | 1.6 | 3.2 | 0.00 | 0.00 | 0.00 | 82 | 1017.1 |
| 20260902061541 | 25 | 205 | 0.0 | 3.2 | 0.00 | 0.00 | 0.00 | 82 | 1017.1 |
| 20260902061018 | 25 | 219 | 1.6 | 3.2 | 0.00 | 0.00 | 0.00 | 82 | 1017.2 |
| 20260902060515 | 25 | 212 | 1.6 | 3.2 | 0.00 | 0.00 | 0.00 | 81 | 1017.1 |
| 20260902060033 | 25 | 222 | 1.6 | 6.4 | 0.00 | 0.00 | 0.00 | 81 | 1017.1 |
| 20260902055520 | 25 | 206 | 1.6 | 6.4 | 0.00 | 0.00 | 0.00 | 81 | 1017.1 |
| 20260902055019 | 25 | 226 | 1.6 | 4.8 | 0.00 | 0.00 | 0.00 | 81 | 1017.1 |
| 20260902054537 | 25 | 198 | 3.2 | 4.8 | 0.00 | 0.00 | 0.00 | 81 | 1017.1 |
| 20260902054007 | 25 | 196 | 1.6 | 6.4 | 0.00 | 0.00 | 0.00 | 81 | 1017.2 |
| 20260902053508 | 25 | 200 | 3.2 | 8.0 | 0.00 | 0.00 | 0.00 | 82 | 1017.1 |
| 20260902053020 | 25 | 215 | 4.8 | 8.0 | 0.00 | 0.00 | 0.00 | 82 | 1017.1 |
| 20260902052514 | 25 | 210 | 4.8 | 6.4 | 0.00 | 0.00 | 0.00 | 83 | 1017.0 |
| 20260902052011 | 25 | 219 | 3.2 | 6.4 | 0.00 | 0.00 | 0.00 | 83 | 1017.0 |
| 20260902051504 | 25 | 189 | 3.2 | 4.8 | 0.00 | 0.00 | 0.00 | 83 | 1017.0 |
| 20260902051005 | 25 | 201 | 3.2 | 4.8 | 0.00 | 0.00 | 0.00 | 83 | 1017.0 |
| 20260902050504 | 25 | 190 | 1.6 | 3.2 | 0.00 | 0.00 | 0.00 | 83 | 1016.9 |
| 20260902050004 | 25 | 196 | 0.0 | 3.2 | 0.00 | 0.00 | 0.00 | 84 | 1017.0 |
| 20260902045503 | 25 | 196 | 1.6 | 3.2 | 0.00 | 0.00 | 0.00 | 84 | 1017.0 |
| 20260902045007 | 25 | 196 | 1.6 | 4.8 | 0.00 | 0.00 | 0.00 | 83 | 1017.0 |
| 20260902044512 | 25 | 205 | 1.6 | 4.8 | 0.00 | 0.00 | 0.00 | 84 | 1017.0 |
| 20260902044007 | 25 | 202 | 1.6 | 4.8 | 0.00 | 0.00 | 0.00 | 83 | 1017.0 |
| 20260902043509 | 25 | 208 | 1.6 | 4.8 | 0.00 | 0.00 | 0.00 | 83 | 1017.0 |
| 20260902043017 | 25 | 212 | 0.0 | 4.8 | 0.00 | 0.00 | 0.00 | 83 | 1017.0 |
| 20260902042511 | 25 | 209 | 1.6 | 6.4 | 0.00 | 0.00 | 0.00 | 83 | 1017.0 |
| 20260902042009 | 25 | 214 | 1.6 | 6.4 | 0.00 | 0.00 | 0.00 | 83 | 1017.0 |
| 20260902041523 | 25 | 203 | 1.6 | 4.8 | 0.00 | 0.00 | 0.00 | 83 | 1016.9 |
| 20260902041013 | 25 | 201 | 1.6 | 4.8 | 0.00 | 0.00 | 0.00 | 83 | 1016.9 |
| 20260902040503 | 25 | 200 | 1.6 | 4.8 | 0.00 | 0.00 | 0.00 | 83 | 1016.9 |
| 20260902040006 | 25 | 200 | 3.2 | 4.8 | 0.00 | 0.00 | 0.00 | 83 | 1016.9 |
| 20260902035503 | 25 | 223 | 1.6 | 4.8 | 0.00 | 0.00 | 0.00 | 83 | 1017.0 |
| 20260902035005 | 25 | 190 | 1.6 | 3.2 | 0.00 | 0.00 | 0.00 | 82 | 1016.9 |
| 20260902034511 | 26 | 207 | 1.6 | 4.8 | 0.00 | 0.00 | 0.00 | 82 | 1017.0 |
| 20260902034006 | 26 | 198 | 1.6 | 4.8 | 0.00 | 0.00 | 0.00 | 82 | 1017.0 |
| 20260902033506 | 26 | 225 | 0.0 | 3.2 | 0.00 | 0.00 | 0.00 | 81 | 1017.0 |
| 20260902033015 | 26 | 225 | 1.6 | 3.2 | 0.00 | 0.00 | 0.00 | 80 | 1017.0 |
| 20260902032509 | 26 | 225 | 1.6 | 3.2 | 0.00 | 0.00 | 0.00 | 80 | 1017.0 |
| 20260902032013 | 26 | 225 | 1.6 | 4.8 | 0.00 | 0.00 | 0.00 | 80 | 1017.1 |
| 20260902031523 | 26 | 223 | 1.6 | 4.8 | 0.00 | 0.00 | 0.00 | 80 | 1017.0 |
| 20260902031013 | 26 | 205 | 3.2 | 4.8 | 0.00 | 0.00 | 0.00 | 80 | 1017.0 |
| 20260902030513 | 26 | 204 | 1.6 | 6.4 | 0.00 | 0.00 | 0.00 | 80 | 1017.1 |
| 20260902030027 | 26 | 217 | 3.2 | 6.4 | 0.00 | 0.00 | 0.00 | 80 | 1017.1 |
| 20260902025503 | 26 | 209 | 1.6 | 4.8 | 0.00 | 0.00 | 0.00 | 79 | 1017.2 |
| 20260902025004 | 26 | 196 | 3.2 | 4.8 | 0.00 | 0.00 | 0.00 | 79 | 1017.2 |
| 20260902024516 | 26 | 202 | 3.2 | 6.4 | 0.00 | 0.00 | 0.00 | 79 | 1017.2 |
| 20260902024006 | 26 | 218 | 3.2 | 6.4 | 0.00 | 0.00 | 0.00 | 80 | 1017.1 |
| 20260902023503 | 26 | 210 | 1.6 | 4.8 | 0.00 | 0.00 | 0.00 | 80 | 1017.1 |
| 20260902023013 | 26 | 190 | 1.6 | 3.2 | 0.00 | 0.00 | 0.00 | 80 | 1017.1 |
| 20260902022507 | 26 | 202 | 1.6 | 3.2 | 0.00 | 0.00 | 0.00 | 80 | 1017.1 |
| 20260902022008 | 26 | 194 | 1.6 | 4.8 | 0.00 | 0.00 | 0.00 | 79 | 1017.0 |
| 20260902021516 | 26 | 200 | 1.6 | 4.8 | 0.00 | 0.00 | 0.00 | 79 | 1017.0 |
| 20260902021008 | 26 | 197 | 3.2 | 4.8 | 0.00 | 0.00 | 0.00 | 79 | 1017.0 |
| 20260902020512 | 27 | 211 | 0.0 | 3.2 | 0.00 | 0.00 | 0.00 | 78 | 1016.9 |
| 20260902020025 | 27 | 211 | 0.0 | 3.2 | 0.00 | 0.00 | 0.00 | 78 | 1016.9 |
| 20260902015514 | 27 | 208 | 1.6 | 3.2 | 0.00 | 0.00 | 0.00 | 78 | 1016.9 |
| 20260902015016 | 27 | 209 | 1.6 | 3.2 | 0.00 | 0.00 | 0.00 | 77 | 1016.9 |
| 20260902014504 | 27 | 209 | 1.6 | 3.2 | 0.00 | 0.00 | 0.00 | 77 | 1016.8 |
| 20260902014004 | 27 | 209 | 1.6 | 3.2 | 0.00 | 0.00 | 0.00 | 77 | 1016.8 |
| 20260902013504 | 27 | 215 | 0.0 | 3.2 | 0.00 | 0.00 | 0.00 | 77 | 1016.8 |
| 20260902013010 | 27 | 215 | 0.0 | 3.2 | 0.00 | 0.00 | 0.00 | 76 | 1016.8 |
| 20260902012509 | 27 | 219 | 0.0 | 3.2 | 0.00 | 0.00 | 0.00 | 76 | 1016.7 |
| 20260902012006 | 27 | 232 | 0.0 | 3.2 | 0.00 | 0.00 | 0.00 | 76 | 1016.6 |
| 20260902011515 | 27 | 215 | 1.6 | 3.2 | 0.00 | 0.00 | 0.00 | 76 | 1016.6 |
| 20260902011012 | 27 | 205 | 1.6 | 3.2 | 0.00 | 0.00 | 0.00 | 75 | 1016.5 |
| 20260902010511 | 27 | 225 | 1.6 | 3.2 | 0.00 | 0.00 | 0.00 | 75 | 1016.5 |
| 20260902010024 | 27 | 205 | 1.6 | 3.2 | 0.00 | 0.00 | 0.00 | 75 | 1016.4 |
| 20260902005513 | 27 | 211 | 0.0 | 3.2 | 0.00 | 0.00 | 0.00 | 75 | 1016.4 |
| 20260902005013 | 28 | 209 | 1.6 | 3.2 | 0.00 | 0.00 | 0.00 | 75 | 1016.3 |
| 20260902004530 | 28 | 207 | 1.6 | 3.2 | 0.00 | 0.00 | 0.00 | 74 | 1016.3 |
| 20260902004015 | 28 | 207 | 1.6 | 3.2 | 0.00 | 0.00 | 0.00 | 74 | 1016.3 |
| 20260902003503 | 28 | 198 | 1.6 | 3.2 | 0.00 | 0.00 | 0.00 | 73 | 1016.3 |
| 20260902003007 | 28 | 209 | 0.0 | 3.2 | 0.00 | 0.00 | 0.00 | 73 | 1016.3 |
| 20260902002504 | 28 | 214 | 1.6 | 1.6 | 0.00 | 0.00 | 0.00 | 72 | 1016.2 |
| 20260902002002 | 28 | 214 | 1.6 | 3.2 | 0.00 | 0.00 | 0.00 | 72 | 1016.3 |
| 20260902001515 | 29 | 214 | 0.0 | 3.2 | 0.00 | 0.00 | 0.00 | 72 | 1016.3 |
| 20260902001009 | 29 | 214 | 0.0 | 4.8 | 0.00 | 0.00 | 0.00 | 71 | 1016.4 |
| 20260902000507 | 29 | 223 | 1.6 | 4.8 | 0.00 | 0.00 | 0.00 | 71 | 1016.4 |
| 20260902000020 | 29 | 221 | 1.6 | 4.8 | 0.00 | 0.00 | 0.00 | 70 | 1016.4 |
| 20260901235511 | 30 | 206 | 1.6 | 3.2 | 0.00 | 0.00 | 0.00 | 70 | 1016.5 |
| 20260901235011 | 30 | 209 | 1.6 | 4.8 | 0.00 | 0.00 | 0.00 | 69 | 1016.4 |
| 20260901234527 | 30 | 222 | 1.6 | 4.8 | 0.00 | 0.00 | 0.00 | 69 | 1016.4 |
| 20260901234012 | 30 | 215 | 1.6 | 3.2 | 0.00 | 0.00 | 0.00 | 68 | 1016.5 |
| 20260901233513 | 30 | 208 | 1.6 | 4.8 | 0.00 | 0.00 | 0.00 | 68 | 1016.4 |
| 20260901233032 | 31 | 207 | 1.6 | 4.8 | 0.00 | 0.00 | 0.00 | 67 | 1016.5 |
| 20260901232503 | 31 | 183 | 1.6 | 8.0 | 0.00 | 0.00 | 0.00 | 67 | 1016.5 |
| 20260901232003 | 31 | 205 | 3.2 | 8.0 | 0.00 | 0.00 | 0.00 | 66 | 1016.5 |
| 20260901231511 | 31 | 232 | 3.2 | 8.0 | 0.00 | 0.00 | 0.00 | 64 | 1016.5 |
| 20260901231009 | 31 | 200 | 3.2 | 6.4 | 0.00 | 0.00 | 0.00 | 64 | 1016.5 |
| 20260901230507 | 32 | 190 | 3.2 | 6.4 | 0.00 | 0.00 | 0.00 | 64 | 1016.6 |
| 20260901230020 | 32 | 194 | 3.2 | 8.0 | 0.00 | 0.00 | 0.00 | 63 | 1016.6 |
| 20260901225508 | 32 | 196 | 3.2 | 8.0 | 0.00 | 0.00 | 0.00 | 63 | 1016.6 |
| 20260901225010 | 32 | 187 | 3.2 | 6.4 | 0.00 | 0.00 | 0.00 | 63 | 1016.5 |
| 20260901224525 | 32 | 202 | 3.2 | 6.4 | 0.00 | 0.00 | 0.00 | 62 | 1016.5 |
| 20260901224012 | 32 | 207 | 3.2 | 6.4 | 0.00 | 0.00 | 0.00 | 61 | 1016.5 |
| 20260901223514 | 32 | 194 | 3.2 | 6.4 | 0.00 | 0.00 | 0.00 | 61 | 1016.4 |
| 20260901223040 | 32 | 163 | 3.2 | 6.4 | 0.00 | 0.00 | 0.00 | 61 | 1016.4 |
| 20260901222515 | 33 | 213 | 3.2 | 9.7 | 0.00 | 0.00 | 0.00 | 61 | 1016.3 |
| 20260901222019 | 33 | 217 | 3.2 | 9.7 | 0.00 | 0.00 | 0.00 | 62 | 1016.4 |
| 20260901221508 | 33 | 203 | 1.6 | 8.0 | 0.00 | 0.00 | 0.00 | 59 | 1016.3 |
| 20260901221004 | 33 | 196 | 3.2 | 6.4 | 0.00 | 0.00 | 0.00 | 61 | 1016.3 |
| 20260901220507 | 33 | 214 | 3.2 | 8.0 | 0.00 | 0.00 | 0.00 | 59 | 1016.3 |
| 20260901220024 | 33 | 173 | 3.2 | 9.7 | 0.00 | 0.00 | 0.00 | 59 | 1016.3 |
| 20260901215507 | 33 | 194 | 3.2 | 9.7 | 0.00 | 0.00 | 0.00 | 58 | 1016.3 |
| 20260901215010 | 33 | 191 | 4.8 | 8.0 | 0.00 | 0.00 | 0.00 | 60 | 1016.3 |
| 20260901214522 | 33 | 182 | 3.2 | 8.0 | 0.00 | 0.00 | 0.00 | 59 | 1016.4 |
| 20260901214010 | 33 | 205 | 3.2 | 8.0 | 0.00 | 0.00 | 0.00 | 60 | 1016.4 |
| 20260901213512 | 33 | 194 | 3.2 | 12.9 | 0.00 | 0.00 | 0.00 | 60 | 1016.4 |
| 20260901213035 | 33 | 206 | 4.8 | 12.9 | 0.00 | 0.00 | 0.00 | 56 | 1016.4 |
| 20260901212512 | 33 | 226 | 3.2 | 9.7 | 0.00 | 0.00 | 0.00 | 57 | 1016.4 |
| 20260901212015 | 33 | 213 | 3.2 | 8.0 | 0.00 | 0.00 | 0.00 | 58 | 1016.4 |
| 20260901211531 | 33 | 191 | 3.2 | 9.7 | 0.00 | 0.00 | 0.00 | 58 | 1016.4 |
| 20260901211016 | 33 | 199 | 3.2 | 11.3 | 0.00 | 0.00 | 0.00 | 58 | 1016.4 |
| 20260901210504 | 33 | 202 | 6.4 | 11.3 | 0.00 | 0.00 | 0.00 | 57 | 1016.4 |
| 20260901210013 | 33 | 178 | 4.8 | 11.3 | 0.00 | 0.00 | 0.00 | 55 | 1016.4 |
| 20260901205508 | 33 | 205 | 1.6 | 12.9 | 0.00 | 0.00 | 0.00 | 57 | 1016.5 |
| 20260901205010 | 33 | 231 | 3.2 | 12.9 | 0.00 | 0.00 | 0.00 | 58 | 1016.5 |
| 20260901204518 | 33 | 166 | 1.6 | 12.9 | 0.00 | 0.00 | 0.00 | 56 | 1016.5 |
| 20260901204009 | 33 | 219 | 4.8 | 12.9 | 0.00 | 0.00 | 0.00 | 57 | 1016.6 |
| 20260901203514 | 33 | 244 | 6.4 | 12.9 | 0.00 | 0.00 | 0.00 | 56 | 1016.6 |
| 20260901203028 | 33 | 225 | 3.2 | 11.3 | 0.00 | 0.00 | 0.00 | 60 | 1016.6 |
| 20260901202512 | 33 | 167 | 3.2 | 12.9 | 0.00 | 0.00 | 0.00 | 59 | 1016.6 |
| 20260901202012 | 33 | 196 | 8.0 | 12.9 | 0.00 | 0.00 | 0.00 | 56 | 1016.5 |
| 20260901201531 | 33 | 231 | 3.2 | 14.5 | 0.00 | 0.00 | 0.00 | 58 | 1016.5 |
| 20260901201016 | 33 | 190 | 6.4 | 14.5 | 0.00 | 0.00 | 0.00 | 57 | 1016.6 |
| 20260901200516 | 33 | 199 | 6.4 | 14.5 | 0.00 | 0.00 | 0.00 | 57 | 1016.7 |
| 20260901200031 | 33 | 211 | 3.2 | 11.3 | 0.00 | 0.00 | 0.00 | 59 | 1016.7 |
| 20260901195506 | 33 | 218 | 4.8 | 12.9 | 0.00 | 0.00 | 0.00 | 58 | 1016.7 |
| 20260901195005 | 33 | 183 | 3.2 | 12.9 | 0.00 | 0.00 | 0.00 | 59 | 1016.7 |
| 20260901194521 | 33 | 160 | 6.4 | 14.5 | 0.00 | 0.00 | 0.00 | 58 | 1016.7 |
| 20260901194012 | 33 | 207 | 8.0 | 14.5 | 0.00 | 0.00 | 0.00 | 56 | 1016.7 |
| 20260901193508 | 33 | 184 | 6.4 | 12.9 | 0.00 | 0.00 | 0.00 | 58 | 1016.7 |
| 20260901193021 | 33 | 211 | 3.2 | 8.0 | 0.00 | 0.00 | 0.00 | 60 | 1016.7 |
| 20260901192513 | 33 | 226 | 4.8 | 14.5 | 0.00 | 0.00 | 0.00 | 61 | 1016.7 |
| 20260901192014 | 33 | 221 | 6.4 | 14.5 | 0.00 | 0.00 | 0.00 | 60 | 1016.7 |
| 20260901191530 | 33 | 210 | 4.8 | 11.3 | 0.00 | 0.00 | 0.00 | 60 | 1016.8 |
| 20260901191016 | 33 | 211 | 4.8 | 11.3 | 0.00 | 0.00 | 0.00 | 60 | 1016.8 |
| 20260901190517 | 33 | 285 | 4.8 | 9.7 | 0.00 | 0.00 | 0.00 | 61 | 1016.8 |
| 20260901190034 | 32 | 208 | 4.8 | 9.7 | 0.00 | 0.00 | 0.00 | 60 | 1016.9 |
| 20260901185519 | 32 | 200 | 6.4 | 12.9 | 0.00 | 0.00 | 0.00 | 60 | 1017.0 |
| 20260901185021 | 32 | 225 | 4.8 | 12.9 | 0.00 | 0.00 | 0.00 | 61 | 1017.0 |
| 20260901184522 | 32 | 173 | 4.8 | 12.9 | 0.00 | 0.00 | 0.00 | 62 | 1017.1 |
| 20260901184007 | 32 | 185 | 4.8 | 11.3 | 0.00 | 0.00 | 0.00 | 59 | 1017.0 |
| 20260901183509 | 32 | 199 | 3.2 | 14.5 | 0.00 | 0.00 | 0.00 | 62 | 1017.0 |
| 20260901183023 | 32 | 198 | 6.4 | 14.5 | 0.00 | 0.00 | 0.00 | 60 | 1017.0 |
| 20260901182511 | 32 | 221 | 8.0 | 14.5 | 0.00 | 0.00 | 0.00 | 62 | 1017.0 |
| 20260901182016 | 32 | 199 | 4.8 | 16.1 | 0.00 | 0.00 | 0.00 | 64 | 1017.0 |
| 20260901181533 | 32 | 242 | 8.0 | 16.1 | 0.00 | 0.00 | 0.00 | 61 | 1017.0 |
| 20260901181013 | 32 | 176 | 6.4 | 17.7 | 0.00 | 0.00 | 0.00 | 62 | 1017.1 |
| 20260901180514 | 32 | 187 | 11.3 | 17.7 | 0.00 | 0.00 | 0.00 | 60 | 1016.9 |
| 20260901180034 | 32 | 195 | 3.2 | 16.1 | 0.00 | 0.00 | 0.00 | 62 | 1017.0 |
| 20260901175518 | 32 | 222 | 6.4 | 16.1 | 0.00 | 0.00 | 0.00 | 61 | 1017.0 |
| 20260901175015 | 32 | 243 | 6.4 | 19.3 | 0.00 | 0.00 | 0.00 | 62 | 1017.0 |
| 20260901174533 | 32 | 216 | 6.4 | 17.7 | 0.00 | 0.00 | 0.00 | 63 | 1017.0 |
| 20260901174008 | 32 | 221 | 4.8 | 17.7 | 0.00 | 0.00 | 0.00 | 62 | 1017.0 |
| 20260901173511 | 32 | 198 | 3.2 | 14.5 | 0.00 | 0.00 | 0.00 | 63 | 1017.1 |
| 20260901173018 | 31 | 182 | 6.4 | 14.5 | 0.00 | 0.00 | 0.00 | 62 | 1017.1 |
| 20260901172510 | 31 | 176 | 4.8 | 11.3 | 0.00 | 0.00 | 0.00 | 62 | 1017.2 |
| 20260901172003 | 31 | 217 | 4.8 | 9.7 | 0.00 | 0.00 | 0.00 | 64 | 1017.3 |
| 20260901171505 | 31 | 197 | 4.8 | 14.5 | 0.00 | 0.00 | 0.00 | 64 | 1017.3 |
| 20260901171003 | 31 | 220 | 6.4 | 14.5 | 0.00 | 0.00 | 0.00 | 63 | 1017.3 |
| 20260901170504 | 31 | 180 | 8.0 | 14.5 | 0.00 | 0.00 | 0.00 | 64 | 1017.3 |
| 20260901170005 | 31 | 209 | 4.8 | 12.9 | 0.00 | 0.00 | 0.00 | 62 | 1017.4 |
| 20260901165502 | 31 | 202 | 6.4 | 16.1 | 0.00 | 0.00 | 0.00 | 63 | 1017.4 |
| 20260901165007 | 31 | 215 | 6.4 | 16.1 | 0.00 | 0.00 | 0.00 | 65 | 1017.5 |
| 20260901164509 | 31 | 211 | 6.4 | 12.9 | 0.00 | 0.00 | 0.00 | 66 | 1017.5 |
| 20260901164005 | 31 | 195 | 4.8 | 12.9 | 0.00 | 0.00 | 0.00 | 64 | 1017.6 |
| 20260901163507 | 31 | 206 | 6.4 | 12.9 | 0.00 | 0.00 | 0.00 | 63 | 1017.6 |
| 20260901163017 | 31 | 203 | 4.8 | 11.3 | 0.00 | 0.00 | 0.00 | 64 | 1017.6 |
| 20260901162509 | 30 | 207 | 4.8 | 14.5 | 0.00 | 0.00 | 0.00 | 67 | 1017.6 |
| 20260901162009 | 30 | 205 | 4.8 | 14.5 | 0.00 | 0.00 | 0.00 | 64 | 1017.6 |
| 20260901161527 | 30 | 205 | 4.8 | 12.9 | 0.00 | 0.00 | 0.00 | 65 | 1017.7 |
| 20260901161003 | 30 | 184 | 6.4 | 16.1 | 0.00 | 0.00 | 0.00 | 69 | 1017.7 |
| 20260901160502 | 30 | 221 | 4.8 | 16.1 | 0.00 | 0.00 | 0.00 | 65 | 1017.8 |
| 20260901160003 | 30 | 205 | 4.8 | 9.7 | 0.00 | 0.00 | 0.00 | 67 | 1017.8 |
| 20260901155504 | 30 | 225 | 4.8 | 9.7 | 0.00 | 0.00 | 0.00 | 67 | 1017.9 |
| 20260901155004 | 30 | 221 | 4.8 | 8.0 | 0.00 | 0.00 | 0.00 | 66 | 1018.0 |
| 20260901154509 | 30 | 315 | 3.2 | 9.7 | 0.00 | 0.00 | 0.00 | 67 | 1018.0 |
| 20260901154003 | 29 | 211 | 3.2 | 9.7 | 0.00 | 0.00 | 0.00 | 68 | 1018.1 |
| 20260901153502 | 29 | 196 | 4.8 | 9.7 | 0.00 | 0.00 | 0.00 | 68 | 1018.1 |
| 20260901153015 | 29 | 305 | 4.8 | 9.7 | 0.00 | 0.00 | 0.00 | 68 | 1018.0 |
| 20260901152508 | 29 | 241 | 3.2 | 9.7 | 0.00 | 0.00 | 0.00 | 67 | 1018.0 |
| 20260901152009 | 28 | 305 | 3.2 | 8.0 | 0.00 | 0.00 | 0.00 | 69 | 1018.0 |
| 20260901151519 | 28 | 202 | 4.8 | 14.5 | 0.00 | 0.00 | 0.00 | 70 | 1018.0 |
| 20260901151014 | 28 | 229 | 6.4 | 14.5 | 0.00 | 0.00 | 0.00 | 69 | 1018.0 |
| 20260901150513 | 28 | 188 | 4.8 | 12.9 | 0.00 | 0.00 | 0.00 | 70 | 1018.1 |
| 20260901150007 | 28 | 210 | 4.8 | 12.9 | 0.00 | 0.00 | 0.00 | 70 | 1018.1 |
| 20260901145503 | 28 | 213 | 4.8 | 16.1 | 0.00 | 0.00 | 0.00 | 70 | 1018.1 |
| 20260901145004 | 28 | 218 | 4.8 | 16.1 | 0.00 | 0.00 | 0.00 | 72 | 1018.1 |
| 20260901144507 | 28 | 208 | 4.8 | 11.3 | 0.00 | 0.00 | 0.00 | 71 | 1018.1 |
| 20260901144003 | 28 | 226 | 4.8 | 11.3 | 0.00 | 0.00 | 0.00 | 72 | 1018.1 |
| 20260901143504 | 28 | 215 | 4.8 | 12.9 | 0.00 | 0.00 | 0.00 | 73 | 1018.1 |
| 20260901143011 | 27 | 183 | 6.4 | 12.9 | 0.00 | 0.00 | 0.00 | 71 | 1018.1 |
| 20260901142507 | 27 | 222 | 3.2 | 8.0 | 0.00 | 0.00 | 0.00 | 73 | 1018.1 |
| 20260901142008 | 27 | 194 | 3.2 | 11.3 | 0.00 | 0.00 | 0.00 | 73 | 1018.1 |
| 20260901141532 | 27 | 243 | 4.8 | 11.3 | 0.00 | 0.00 | 0.00 | 73 | 1018.1 |
| 20260901141010 | 27 | 182 | 3.2 | 12.9 | 0.00 | 0.00 | 0.00 | 74 | 1018.1 |
| 20260901140511 | 27 | 191 | 6.4 | 12.9 | 0.00 | 0.00 | 0.00 | 74 | 1018.1 |
| 20260901140026 | 27 | 230 | 4.8 | 12.9 | 0.00 | 0.00 | 0.00 | 76 | 1018.1 |
| 20260901135513 | 26 | 198 | 4.8 | 12.9 | 0.00 | 0.00 | 0.00 | 75 | 1018.1 |
| 20260901135003 | 26 | 203 | 4.8 | 12.9 | 0.00 | 0.00 | 0.00 | 76 | 1018.0 |
| 20260901134503 | 26 | 126 | 4.8 | 9.7 | 0.00 | 0.00 | 0.00 | 77 | 1018.1 |
| 20260901134007 | 25 | 207 | 3.2 | 9.7 | 0.00 | 0.00 | 0.00 | 78 | 1018.1 |
| 20260901133506 | 25 | 174 | 4.8 | 12.9 | 0.00 | 0.00 | 0.00 | 78 | 1018.1 |
| 20260901133009 | 25 | 232 | 4.8 | 12.9 | 0.00 | 0.00 | 0.00 | 78 | 1018.2 |
| 20260901132506 | 25 | 213 | 4.8 | 14.5 | 0.00 | 0.00 | 0.00 | 79 | 1018.3 |
| 20260901132007 | 25 | 232 | 6.4 | 14.5 | 0.00 | 0.00 | 0.00 | 79 | 1018.3 |
| 20260901131516 | 25 | 218 | 1.6 | 11.3 | 0.00 | 0.00 | 0.00 | 79 | 1018.2 |
| 20260901131008 | 25 | 238 | 6.4 | 11.3 | 0.00 | 0.00 | 0.00 | 79 | 1018.2 |
| 20260901130510 | 25 | 217 | 4.8 | 14.5 | 0.00 | 0.00 | 0.00 | 80 | 1018.2 |
| 20260901130026 | 25 | 242 | 4.8 | 14.5 | 0.00 | 0.00 | 0.00 | 80 | 1018.3 |
| 20260901125511 | 24 | 201 | 1.6 | 6.4 | 0.00 | 0.00 | 0.00 | 81 | 1018.3 |
| 20260901125014 | 24 | 186 | 3.2 | 8.0 | 0.00 | 0.00 | 0.00 | 81 | 1018.2 |
| 20260901124527 | 24 | 194 | 3.2 | 8.0 | 0.00 | 0.00 | 0.00 | 81 | 1018.2 |
| 20260901124003 | 24 | 205 | 1.6 | 9.7 | 0.00 | 0.00 | 0.00 | 82 | 1018.2 |
| 20260901123504 | 24 | 213 | 3.2 | 9.7 | 0.00 | 0.00 | 0.00 | 81 | 1018.0 |
| 20260901123007 | 24 | 209 | 4.8 | 8.0 | 0.00 | 0.00 | 0.00 | 81 | 1018.1 |
| 20260901122504 | 23 | 218 | 3.2 | 8.0 | 0.00 | 0.00 | 0.00 | 82 | 1018.1 |
| 20260901122004 | 23 | 203 | 3.2 | 11.3 | 0.00 | 0.00 | 0.00 | 82 | 1018.0 |
| 20260901121512 | 23 | 203 | 3.2 | 11.3 | 0.00 | 0.00 | 0.00 | 82 | 1018.0 |
| 20260901121007 | 23 | 221 | 3.2 | 6.4 | 0.00 | 0.00 | 0.00 | 82 | 1018.0 |
| 20260901120507 | 24 | 213 | 4.8 | 8.0 | 0.00 | 0.00 | 0.00 | 81 | 1018.0 |
| 20260901120019 | 23 | 212 | 3.2 | 8.0 | 0.00 | 0.00 | 0.00 | 81 | 1018.0 |
| 20260901115511 | 23 | 214 | 3.2 | 8.0 | 0.00 | 0.00 | 0.00 | 81 | 1018.0 |
| 20260901115015 | 23 | 192 | 3.2 | 8.0 | 0.00 | 0.00 | 0.00 | 82 | 1018.0 |
| 20260901114527 | 23 | 209 | 3.2 | 8.0 | 0.00 | 0.00 | 0.00 | 82 | 1017.9 |
| 20260901114015 | 23 | 212 | 3.2 | 6.4 | 0.00 | 0.00 | 0.00 | 82 | 1017.9 |
| 20260901113514 | 23 | 207 | 3.2 | 4.8 | 0.00 | 0.00 | 0.00 | 82 | 1017.8 |
| 20260901113005 | 23 | 205 | 3.2 | 6.4 | 0.00 | 0.00 | 0.00 | 82 | 1017.8 |
| 20260901112505 | 23 | 211 | 3.2 | 6.4 | 0.00 | 0.00 | 0.00 | 82 | 1017.7 |
| 20260901112004 | 23 | 213 | 3.2 | 6.4 | 0.00 | 0.00 | 0.00 | 82 | 1017.7 |
| 20260901111510 | 23 | 219 | 4.8 | 6.4 | 0.00 | 0.00 | 0.00 | 81 | 1017.5 |
| 20260901111005 | 23 | 188 | 1.6 | 9.7 | 0.00 | 0.00 | 0.00 | 81 | 1017.5 |
| 20260901110506 | 23 | 216 | 3.2 | 9.7 | 0.00 | 0.00 | 0.00 | 81 | 1017.5 |
| 20260901110018 | 23 | 199 | 3.2 | 8.0 | 0.00 | 0.00 | 0.00 | 82 | 1017.4 |
| 20260901105509 | 23 | 182 | 1.6 | 6.4 | 0.00 | 0.00 | 0.00 | 82 | 1017.5 |
| 20260901105014 | 23 | 210 | 3.2 | 4.8 | 0.00 | 0.00 | 0.00 | 82 | 1017.4 |
| 20260901104524 | 23 | 221 | 1.6 | 8.0 | 0.00 | 0.00 | 0.00 | 82 | 1017.4 |
| 20260901104013 | 24 | 202 | 3.2 | 8.0 | 0.00 | 0.00 | 0.00 | 82 | 1017.3 |
| 20260901103513 | 23 | 199 | 4.8 | 6.4 | 0.00 | 0.00 | 0.00 | 82 | 1017.2 |
| 20260901103029 | 24 | 196 | 3.2 | 6.4 | 0.00 | 0.00 | 0.00 | 82 | 1017.2 |